Sitka, AK

4:00 PM AKST on January 18, 2017 (GMT -0900)
Sitka Rocky Gutierrez

Weather History for PASI - April, 2013

Change the Weather History Date:

Friday, April 26, 2013

  Actual Average Record
Temperature  
Mean Temperature 40 °F -  
Max Temperature 44 °F 51 °F 69 °F (1989)
Min Temperature 35 °F 38 °F 28 °F (1954)
Degree Days  
Heating Degree Days 26    
Moisture  
Dew Point 38 °F    
Average Humidity 90    
Maximum Humidity 100    
Minimum Humidity 81    
Precipitation  
Precipitation 1.53 in - - ()
Sea Level Pressure  
Sea Level Pressure 29.44 in    
Wind  
Wind Speed 9 mph (SSE)    
Max Wind Speed 21 mph    
Max Gust Speed 33 mph    
Visibility 6 miles    
Events Rain    
Averages and records for this station are not official NWS values.
T = Trace of Precipitation, MM = Missing Value Source: NWS Daily Summary

Daily Weather History Graph

Daily Weather History Graph

Search for Another Location

Airport or City:

Trip Planner

Search our weather history database for the weather conditions in past years. The results will help you decide how hot, cold, wet, or windy it might be!

Date:

Astronomy

Apr. 26, 2013 Rise Set
Actual Time 5:24 AM AKDT 8:35 PM AKDT
Civil Twilight 4:39 AM AKDT 9:20 PM AKDT
Nautical Twilight 3:38 AM AKDT 10:22 PM AKDT
Astronomical Twilight 2:05 AM AKDT 12:00 AM AKDT
Moon 10:25 PM AKDT (4/26) 5:46 AM AKDT (4/26)
Length of Visible Light 16h 41m
Length of Day
15h 11m
Full, 99% of the Moon is Illuminated
Apr 26
Full
May 2
Last Quarter
May 9
New
May 17
First Quarter
May 24
Full

Hourly Weather History & Observations

Time (AKDT) Temp. Windchill Dew Point Humidity Pressure Visibility Wind Dir Wind Speed Gust Speed Precip Events Conditions
12:53 AM 39.9 °F - 39.0 °F 97% 29.44 in 8.0 mi Calm Calm - 0.05 in Rain Light Rain
1:53 AM 39.9 °F - 39.0 °F 97% 29.43 in 5.0 mi Calm Calm - 0.07 in Rain Rain
2:53 AM 41.0 °F 38.0 °F 39.9 °F 96% 29.41 in 5.0 mi ESE 4.6 mph - 0.11 in Rain Rain
3:53 AM 41.0 °F - 39.9 °F 96% 29.39 in 7.0 mi Calm Calm - 0.11 in Rain Light Rain
4:53 AM 41.0 °F 33.5 °F 39.0 °F 93% 29.37 in 7.0 mi ESE 13.8 mph - 0.08 in Rain Light Rain
5:20 AM 42.8 °F 36.2 °F 39.2 °F 87% 29.36 in 2.5 mi SE 12.7 mph 20.7 mph 0.03 in Rain Rain
5:39 AM 42.8 °F 36.2 °F 39.2 °F 87% 29.35 in 3.0 mi ESE 12.7 mph 20.7 mph 0.05 in Rain Rain
5:53 AM 42.1 °F 34.5 °F 39.9 °F 92% 29.36 in 3.0 mi ESE 15.0 mph 23.0 mph 0.07 in Rain Light Rain
6:00 AM 42.8 °F 36.2 °F 39.2 °F 87% 29.35 in 2.0 mi ESE 12.7 mph 23.0 mph 0.00 in Rain Rain
6:53 AM 44.1 °F 36.2 °F 42.1 °F 93% 29.36 in 1.8 mi SSE 18.4 mph 25.3 mph 0.10 in Rain Rain
7:10 AM 42.8 °F 35.8 °F 41.0 °F 93% 29.35 in 2.0 mi SE 13.8 mph 26.5 mph 0.03 in Rain Rain
7:53 AM 43.0 °F 34.8 °F 39.9 °F 89% 29.36 in 2.5 mi SSE 18.4 mph 33.4 mph 0.13 in Rain Rain
8:22 AM 42.8 °F 38.0 °F 39.2 °F 87% 29.35 in 4.0 mi ESE 8.1 mph 27.6 mph 0.05 in Rain Rain
8:53 AM 42.1 °F 34.2 °F 39.0 °F 89% 29.36 in 3.0 mi SSE 16.1 mph 28.8 mph 0.13 in Rain Rain
9:13 AM 42.8 °F 35.8 °F 39.2 °F 87% 29.35 in 4.0 mi SE 13.8 mph 24.2 mph 0.05 in Rain Rain
9:23 AM 42.8 °F 36.6 °F 39.2 °F 87% 29.36 in 4.0 mi SE 11.5 mph 26.5 mph 0.07 in Rain Rain
9:53 AM 42.1 °F 35.7 °F 39.9 °F 92% 29.36 in 4.0 mi SSE 11.5 mph 24.2 mph 0.13 in Rain Rain
10:37 AM 42.8 °F 38.0 °F 41.0 °F 93% 29.38 in 3.0 mi SSW 8.1 mph - 0.10 in Rain Rain
10:53 AM 42.1 °F 33.9 °F 39.9 °F 92% 29.39 in 6.0 mi SW 17.3 mph - 0.12 in Rain Light Rain
11:11 AM 42.8 °F 34.0 °F 39.2 °F 87% 29.41 in 6.0 mi SW 20.7 mph - 0.02 in Rain Light Rain
11:41 AM 42.8 °F 34.5 °F 39.2 °F 87% 29.44 in 9.0 mi SW 18.4 mph - 0.04 in Rain Light Rain
11:53 AM 42.1 °F 33.3 °F 37.9 °F 85% 29.44 in 6.0 mi SW 19.6 mph - 0.05 in Rain Light Rain
12:03 PM 41.0 °F 33.1 °F 37.4 °F 87% 29.45 in 7.0 mi SW 15.0 mph - 0.00 in Rain Light Rain
12:53 PM 42.1 °F 33.6 °F 39.0 °F 89% 29.47 in 6.0 mi SW 18.4 mph - 0.02 in Rain Light Rain
1:05 PM 42.8 °F 35.4 °F 37.4 °F 81% 29.47 in 5.0 mi SW 15.0 mph - 0.02 in Rain Light Rain
1:53 PM 42.1 °F 34.5 °F 39.9 °F 92% 29.49 in 4.0 mi SW 15.0 mph - 0.05 in Rain Light Rain
1:59 PM 42.8 °F 36.2 °F 39.2 °F 87% 29.49 in 2.5 mi South 12.7 mph 19.6 mph 0.02 in Rain Rain
2:10 PM 42.8 °F 35.8 °F 39.2 °F 87% 29.49 in 4.0 mi SSW 13.8 mph 20.7 mph 0.03 in Rain Light Rain
2:24 PM 42.8 °F 35.4 °F 39.2 °F 87% 29.50 in 5.0 mi SSW 15.0 mph 19.6 mph 0.04 in Rain Light Rain
2:31 PM 42.8 °F 34.8 °F 39.2 °F 87% 29.50 in 5.0 mi SSW 17.3 mph 25.3 mph 0.05 in Rain Light Rain
2:53 PM 39.9 °F 30.5 °F 37.0 °F 89% 29.51 in 3.0 mi SSW 19.6 mph 25.3 mph 0.10 in Rain Rain
3:06 PM 41.0 °F 32.8 °F 37.4 °F 87% 29.51 in 5.0 mi SW 16.1 mph - 0.01 in Rain Light Rain
3:53 PM 41.0 °F 35.2 °F 37.9 °F 89% 29.51 in 10.0 mi SSW 9.2 mph - 0.02 in Rain Light Rain
4:21 PM 41.0 °F 34.7 °F 37.4 °F 87% 29.50 in 4.0 mi South 10.4 mph - 0.03 in Rain Light Rain
4:30 PM 39.2 °F 35.9 °F 37.4 °F 93% 29.50 in 7.0 mi Variable 4.6 mph - 0.05 in Rain Rain
4:40 PM 41.0 °F 34.7 °F 39.2 °F 93% 29.49 in 7.0 mi South 10.4 mph - 0.05 in Rain Light Rain
4:53 PM 41.0 °F 35.2 °F 37.9 °F 89% 29.49 in 9.0 mi SSE 9.2 mph - 0.05 in Rain Light Rain
5:51 PM 39.2 °F 35.0 °F 37.4 °F 93% 29.47 in 8.0 mi SSE 5.8 mph - 0.02 in Rain Light Rain
5:53 PM 39.9 °F 36.7 °F 37.9 °F 93% 29.47 in 9.0 mi South 4.6 mph - 0.02 in Rain Light Rain
6:20 PM 41.0 °F 33.9 °F 35.6 °F 81% 29.47 in 7.0 mi SW 12.7 mph - 0.01 in Rain Light Rain
6:45 PM 39.2 °F 33.0 °F 37.4 °F 93% 29.47 in 7.0 mi West 9.2 mph - 0.05 in Rain Light Rain
6:53 PM 39.0 °F 31.8 °F 36.0 °F 89% 29.47 in 9.0 mi West 11.5 mph - 0.05 in Rain Light Rain
7:28 PM 39.2 °F - 35.6 °F 87% 29.47 in 10.0 mi Calm Calm - 0.01 in   Overcast
7:53 PM 39.0 °F - 36.0 °F 89% 29.47 in 10.0 mi Calm Calm - 0.01 in   Overcast
8:17 PM 37.4 °F 31.4 °F 35.6 °F 93% 29.46 in 7.0 mi East 8.1 mph - 0.01 in Rain Light Rain
8:25 PM 37.4 °F 31.4 °F 35.6 °F 93% 29.46 in 10.0 mi East 8.1 mph - 0.01 in Rain Light Rain
8:42 PM 37.4 °F 31.4 °F 35.6 °F 93% 29.46 in 10.0 mi East 8.1 mph - 0.01 in   Overcast
8:53 PM 37.0 °F 30.4 °F 35.1 °F 93% 29.46 in 10.0 mi East 9.2 mph - 0.01 in   Overcast
9:53 PM 37.0 °F 29.8 °F 35.1 °F 93% 29.47 in 4.0 mi SSE 10.4 mph - 0.02 in Rain Light Rain
10:00 PM 37.4 °F 31.4 °F 33.8 °F 87% 29.46 in 7.0 mi SE 8.1 mph - 0.00 in Rain Light Rain
10:08 PM 37.4 °F 30.3 °F 33.8 °F 87% 29.46 in 10.0 mi SE 10.4 mph - 0.00 in   Mostly Cloudy
10:53 PM 36.0 °F 32.1 °F 34.0 °F 93% 29.47 in 10.0 mi ENE 4.6 mph - 0.01 in   Overcast
11:22 PM 35.6 °F 30.7 °F 35.6 °F 100% 29.46 in 10.0 mi ESE 5.8 mph - 0.00 in Rain Light Rain
11:39 PM 35.6 °F 30.7 °F 33.8 °F 93% 29.47 in 10.0 mi East 5.8 mph - 0.00 in Rain Light Rain
11:53 PM 36.0 °F 33.3 °F 34.0 °F 93% 29.47 in 5.0 mi NE 3.5 mph - 0.02 in Rain Heavy Rain